Theta_e
328 322 320 317 306 305 299 300 303 303 315 324 332 328 330 334 331 327 356 357 362 362 364 363 364 363 363 363 364 364 363 362 362 361 361 361 362 362 362 362 363 364 361 361 361 361 360 359 359
321 319 317 311 304 300 299 302 302 303 306 308 322 331 333 331 338 343 349 360 365 364 364 363 363 363 361 362 362 363 363 363 363 362 362 362 362 362 362 362 363 363 359 358 359 360 360 360 359
317 314 310 307 302 298 298 302 303 304 308 307 322 326 329 328 337 344 362 362 363 363 364 364 362 363 361 360 361 362 362 362 363 363 363 363 362 362 361 362 363 362 358 356 358 361 361 360 358
314 313 309 300 298 299 300 303 304 307 315 316 320 323 334 345 345 357 364 364 361 360 363 364 361 361 361 360 359 361 362 362 362 363 362 362 362 362 361 362 362 360 359 358 357 359 359 358 356
309 309 303 299 298 301 303 303 304 308 307 319 324 322 327 334 354 360 362 362 360 359 362 364 362 361 361 360 359 360 361 361 362 362 362 362 362 361 361 361 361 361 360 358 356 357 356 355 354
306 306 300 297 297 300 304 305 305 306 308 310 318 323 319 324 350 357 360 361 362 360 363 363 363 361 361 361 360 360 360 361 361 361 362 362 361 361 361 361 361 361 361 359 357 356 353 352 351
303 302 297 297 297 300 303 306 305 304 307 307 307 309 310 314 330 358 359 361 361 363 362 363 363 364 361 361 360 360 360 360 360 360 360 360 360 360 361 361 361 362 360 359 357 355 352 350 349
303 303 296 297 298 298 304 306 306 306 306 310 310 305 307 313 335 356 359 360 360 361 361 362 363 362 361 361 360 360 359 359 359 359 359 359 359 360 360 359 360 361 360 358 357 355 352 349 348
302 300 297 297 299 300 305 304 308 308 307 308 309 309 312 315 320 340 347 354 360 359 360 361 359 359 361 360 360 360 359 358 359 358 358 356 354 355 356 355 359 360 359 357 355 354 351 349 346
304 301 298 301 302 302 304 304 305 305 305 306 308 311 312 313 314 315 318 331 343 352 360 361 360 359 358 358 361 359 359 357 356 356 356 352 352 353 352 354 357 358 358 357 355 353 350 346 342
303 300 301 302 304 304 304 303 305 304 302 304 304 307 310 311 313 312 312 314 316 330 353 360 362 361 359 357 359 358 357 356 357 357 357 355 352 352 352 350 352 354 356 352 353 352 347 344 342
301 303 303 304 304 303 303 304 303 304 305 306 306 308 309 311 312 312 313 313 314 316 320 342 361 363 359 357 357 358 355 357 355 355 357 354 351 350 350 349 350 353 351 351 353 350 348 346 343
303 303 304 304 304 303 304 302 302 304 306 306 307 309 309 310 312 313 314 316 316 316 318 321 333 360 361 355 358 360 357 356 357 356 357 355 350 349 349 349 349 350 351 350 351 349 347 344 341
303 303 304 304 304 303 301 302 303 305 306 307 308 309 310 310 310 312 315 316 319 319 320 321 322 340 358 355 360 360 359 359 358 357 357 355 354 350 348 348 348 349 351 350 350 349 346 344 341
303 301 302 303 303 302 301 300 301 304 305 306 307 308 308 309 311 313 315 317 319 320 322 322 323 330 348 355 360 360 360 359 358 357 358 356 354 351 347 348 347 348 350 351 352 351 348 345 342
299 299 296 302 302 301 302 296 303 304 304 305 306 307 307 311 314 316 318 319 322 321 321 324 322 322 341 352 355 359 359 359 358 358 356 355 355 352 346 349 347 348 349 349 348 348 345 344 343
298 294 296 298 302 300 300 297 303 305 305 305 307 306 309 312 315 318 319 320 321 322 323 323 324 322 328 350 352 357 358 356 358 358 354 354 354 351 346 351 349 351 348 347 347 346 346 343 344
294 294 295 295 300 299 298 298 302 304 304 304 306 305 309 310 313 317 318 319 319 320 323 324 326 324 324 332 351 351 353 354 354 356 353 352 354 351 346 347 350 350 347 346 346 347 347 346 346
297 295 295 298 300 297 297 297 299 302 301 302 304 306 309 310 314 316 316 317 317 319 319 322 323 328 320 326 338 342 342 347 351 354 357 357 356 354 351 346 344 349 347 347 349 348 348 344 345
297 295 296 297 298 297 297 296 299 300 301 302 303 307 308 310 312 313 314 314 315 315 316 318 320 325 326 320 336 342 344 347 350 351 355 356 356 355 352 351 346 346 345 348 348 348 344 345 345
296 295 294 293 297 298 295 293 295 299 301 303 307 309 309 310 309 311 312 312 313 313 314 315 318 321 325 329 325 345 347 348 347 348 348 351 355 357 355 354 352 348 348 342 348 348 347 341 344
293 297 295 295 294 288 294 285 292 296 300 302 305 307 308 309 309 310 311 311 312 311 312 313 315 316 319 326 328 331 335 336 340 344 346 350 354 355 356 356 353 352 349 347 343 344 348 348 341
295 297 296 295 292 290 290 288 292 295 296 299 304 307 309 309 309 309 309 310 310 311 311 311 314 316 316 320 324 327 331 335 339 342 348 352 353 353 353 355 353 351 350 350 348 342 343 347 346
298 297 296 291 291 286 289 290 290 293 295 300 304 307 308 309 309 309 310 310 310 311 311 311 312 313 314 316 319 322 327 331 335 340 341 343 345 349 351 353 353 351 351 350 349 342 341 345 349
297 294 287 285 285 283 291 288 291 297 299 301 302 306 308 309 308 308 308 308 309 309 309 310 311 312 313 313 315 318 322 329 333 335 338 341 342 343 346 350 350 349 351 350 350 345 345 339 345
294 293 287 280 281 284 291 285 292 300 302 303 305 307 308 308 308 307 307 308 308 308 309 307 308 309 311 312 313 316 321 325 330 335 335 337 340 342 349 348 351 349 348 348 349 346 341 344 336
293 290 293 289 287 284 288 291 297 300 300 302 304 303 305 307 307 307 307 309 308 308 309 308 308 308 310 311 312 315 318 324 329 335 338 337 342 342 346 347 347 347 344 344 344 338 340 339 334
296 298 289 290 280 280 286 287 289 294 297 300 301 302 304 306 306 306 307 308 308 308 307 307 308 307 309 311 312 313 315 320 328 335 338 339 341 344 345 346 347 347 344 345 341 336 338 336 333
293 292 292 291 290 283 281 286 296 296 299 299 301 303 304 304 305 306 306 307 307 307 306 307 307 307 308 310 311 312 314 317 326 332 338 340 342 343 344 345 345 344 344 345 337 334 337 331 328
296 294 294 288 285 286 287 287 300 300 301 301 302 303 304 305 305 306 305 305 304 305 305 306 307 306 308 309 310 311 313 315 322 331 336 340 341 342 343 344 343 343 342 344 336 330 330 326 328
Wind_Speed
5 1 2 3 4 0 5 7 4 11 2 4 4 3 8 8 5 4 4 7 4 14 14 14 11 10 9 10 13 14 15 15 16 16 16 16 16 17 16 15 13 13 14 13 13 14 14 13 11
4 1 1 1 1 3 4 9 11 7 7 11 0 3 6 7 5 4 2 5 9 13 12 12 11 11 10 11 11 12 13 13 14 15 16 15 15 15 15 14 13 13 13 14 13 14 13 12 11
1 2 1 3 2 4 4 10 11 7 5 3 2 5 4 4 4 4 4 7 10 12 11 11 11 9 10 10 11 12 12 12 13 14 15 15 15 14 14 14 12 12 14 14 14 12 12 11 10
1 2 3 6 13 5 5 9 11 6 5 9 3 7 4 6 6 10 5 6 10 11 10 11 11 10 10 9 10 11 12 12 13 13 14 15 14 14 12 12 12 11 12 12 12 11 11 10 8
3 1 4 5 5 1 2 5 8 13 3 8 2 9 7 6 7 7 5 4 5 9 9 12 12 12 12 11 10 10 10 10 12 12 13 13 13 12 12 11 10 10 11 10 11 10 9 9 7
3 1 5 6 4 1 3 8 7 10 12 10 9 6 6 4 10 7 5 6 4 5 6 7 9 9 9 12 12 11 9 9 9 11 12 13 12 11 11 11 10 9 9 10 10 8 8 8 7
4 3 5 7 5 5 8 10 10 7 13 13 3 5 3 9 7 4 5 5 5 5 5 6 7 8 7 8 9 11 11 11 11 10 10 11 12 12 11 10 10 9 9 9 9 8 7 7 6
3 3 4 3 5 5 7 8 5 7 8 6 4 5 4 6 5 2 2 3 3 5 5 6 5 7 7 8 9 10 10 11 11 10 10 10 10 10 10 9 9 9 8 7 7 7 6 6 6
1 4 6 3 3 3 5 6 5 4 6 5 7 7 9 9 4 3 3 1 2 3 5 6 7 7 7 7 7 9 11 11 10 11 11 9 9 11 12 10 8 8 8 7 6 6 6 5 4
5 4 3 2 3 3 5 4 5 4 9 7 10 11 11 10 8 7 7 8 6 6 6 7 8 8 8 6 8 9 8 8 9 10 10 9 9 9 9 8 9 8 7 7 6 6 5 7 4
4 5 3 2 3 2 2 2 3 2 5 4 6 10 11 10 9 9 10 9 10 10 8 9 8 8 9 8 7 5 6 6 7 11 10 9 7 8 8 7 7 8 9 7 8 7 6 5 4
5 2 1 1 1 2 3 0 3 2 4 1 2 3 5 9 8 7 8 10 10 12 12 9 10 10 11 8 8 8 7 8 8 10 12 8 7 8 8 7 8 8 7 8 7 5 4 5 5
7 6 5 7 4 4 2 2 1 4 2 3 4 3 7 8 9 6 5 6 8 9 12 12 10 12 11 10 9 9 10 9 10 10 11 10 10 8 8 8 8 8 8 8 7 6 5 5 5
3 4 6 2 2 2 2 2 3 3 2 5 7 8 8 8 8 11 11 12 10 10 12 11 11 12 11 10 13 10 9 10 10 10 11 14 9 9 9 9 8 9 8 8 7 6 5 4 4
1 1 3 3 5 2 2 5 5 2 2 6 7 8 8 8 9 11 12 12 13 12 12 12 11 11 12 14 14 11 10 10 10 10 12 14 13 9 10 9 8 9 8 10 8 7 5 5 5
3 1 6 7 6 2 5 10 11 1 5 9 10 8 7 9 10 9 11 12 14 14 14 14 11 11 12 14 12 11 11 11 10 10 9 14 15 13 9 10 9 9 8 8 8 7 7 6 5
5 6 9 7 6 5 3 12 12 9 11 12 14 6 4 7 9 10 11 12 13 12 13 15 14 12 12 13 13 12 12 10 10 9 10 13 15 14 9 11 10 9 8 8 8 7 8 6 6
5 5 4 10 5 4 13 14 14 16 15 17 16 5 1 4 8 8 10 12 13 14 13 14 14 14 11 11 10 9 7 8 9 9 10 13 12 15 11 8 10 10 8 8 8 9 8 6 5
5 5 8 8 6 10 15 17 19 19 17 16 10 4 3 3 5 7 9 11 12 14 16 17 17 17 10 8 9 9 11 11 11 12 18 17 14 15 14 9 8 8 11 11 10 9 10 7 6
5 6 9 7 7 11 18 23 18 15 12 6 5 3 2 1 4 7 9 10 12 13 14 15 16 17 13 8 8 9 9 11 12 10 9 14 15 15 14 14 10 11 8 11 12 12 8 8 9
4 6 3 8 13 12 12 16 2 1 6 4 3 2 2 2 4 6 7 9 10 13 15 14 14 15 14 16 8 7 8 6 6 9 9 13 17 16 16 16 13 13 9 9 11 13 14 9 9
6 3 6 11 13 13 4 10 3 3 6 7 3 5 3 2 1 4 8 10 11 12 13 15 14 14 13 14 10 10 11 11 11 10 11 12 18 17 16 14 14 14 11 11 10 9 12 11 10
4 5 9 11 13 6 5 7 1 3 8 6 6 5 4 2 4 6 7 10 10 11 12 14 14 14 15 14 13 9 10 11 11 10 12 12 11 16 17 16 15 13 11 13 12 8 10 12 10
3 6 10 1 3 6 4 2 4 5 4 5 4 5 5 5 5 5 7 11 12 13 15 17 17 14 15 14 15 13 12 12 12 12 11 10 10 9 14 15 13 13 11 13 12 11 10 12 12
3 8 5 3 3 5 6 8 11 12 12 14 12 9 7 7 6 7 9 12 14 16 16 16 17 17 15 17 16 15 14 13 13 14 12 12 10 9 11 12 11 11 13 13 13 11 13 8 10
3 2 3 7 6 13 11 10 4 4 4 4 5 5 8 10 8 8 10 11 13 14 15 15 18 18 17 15 16 15 15 10 9 11 11 11 11 11 11 12 12 12 12 12 11 8 8 12 8
4 6 2 5 4 6 6 6 10 15 12 7 10 8 8 9 10 10 12 12 13 14 16 16 15 17 16 16 14 14 14 14 12 13 12 11 12 11 13 14 14 13 13 13 10 7 9 11 12
7 7 4 2 5 8 9 13 12 9 9 10 13 14 5 11 8 9 13 14 14 16 16 16 15 16 16 16 14 13 15 15 14 12 13 14 13 14 14 14 13 13 12 13 11 9 10 13 10
5 5 4 5 5 6 11 9 4 10 13 13 14 8 13 10 9 12 14 16 16 16 17 16 16 17 16 15 15 15 15 16 14 11 13 13 13 13 14 14 14 12 12 14 12 10 14 13 10
10 14 14 7 9 8 13 17 12 14 10 10 13 17 11 10 13 14 17 17 17 17 17 16 16 16 16 15 15 15 15 15 14 11 13 12 11 12 12 13 11 11 13 15 14 13 10 13 15
Wind_Direction
323 9 178 193 218 112 69 15 298 312 135 35 357 345 74 44 21 46 64 134 140 153 150 155 148 147 138 128 127 130 136 143 149 148 146 145 147 148 148 150 148 141 138 142 143 139 140 142 141
2 156 175 92 248 135 85 346 339 319 301 314 118 54 49 68 30 76 111 125 140 144 145 153 150 145 146 132 130 131 138 141 145 146 145 148 150 150 149 153 152 147 147 147 146 145 144 146 144
191 277 84 70 60 89 75 4 336 335 335 278 125 50 39 23 31 40 70 130 135 139 143 145 151 142 150 149 139 140 142 144 146 148 147 150 153 155 155 156 156 154 152 150 152 148 146 150 148
266 143 93 87 91 75 66 6 347 4 41 25 7 72 88 26 1 14 73 122 143 145 148 140 154 152 150 161 156 151 151 153 152 154 151 152 157 158 157 156 155 155 153 152 152 150 152 153 153
36 49 83 92 81 65 323 337 340 39 42 30 348 99 77 27 26 48 48 65 136 151 159 157 164 165 161 166 171 169 162 162 158 158 155 155 159 162 156 154 154 156 153 151 153 153 151 151 159
85 8 109 117 95 360 1 355 355 39 40 27 61 82 58 355 22 27 51 65 101 148 162 164 167 176 171 169 173 175 171 167 168 166 163 162 163 165 162 155 155 157 152 153 156 155 156 159 161
82 65 88 113 104 74 8 341 22 7 30 29 349 74 52 31 8 20 50 81 108 138 167 182 186 184 181 184 180 177 177 175 173 175 172 170 169 168 166 161 157 158 159 159 154 162 167 166 169
78 81 113 38 97 58 3 348 334 16 31 329 345 54 43 9 353 13 43 75 111 154 175 189 197 203 206 196 193 189 186 181 177 178 176 175 175 173 169 165 166 169 171 170 162 170 175 171 174
166 81 100 101 102 56 0 2 351 344 359 32 14 25 341 344 11 343 349 160 216 211 203 198 207 209 219 222 203 199 198 194 189 184 183 175 193 190 185 194 160 184 184 180 183 178 181 180 181
37 83 79 36 101 16 320 316 343 346 22 26 43 34 6 355 11 9 346 322 301 269 246 223 212 214 216 220 221 212 211 208 203 202 194 200 197 197 204 196 199 198 195 194 197 190 185 204 214
37 57 136 166 227 306 260 262 335 352 54 36 20 12 27 28 25 6 358 333 313 306 280 240 223 221 217 214 215 207 213 207 212 208 204 203 197 198 203 204 203 213 199 216 203 200 217 211 226
104 43 256 321 194 294 246 310 117 101 115 217 286 329 1 20 18 12 353 341 335 322 300 287 248 229 221 219 217 211 210 207 210 207 201 199 202 202 205 207 208 209 209 208 218 214 218 216 226
44 2 330 313 297 234 254 350 104 221 204 252 283 334 6 355 349 358 326 320 318 311 310 303 285 239 233 224 225 220 209 214 214 211 202 199 202 210 210 207 211 207 209 207 207 218 215 215 226
347 329 331 337 3 293 231 334 203 228 263 321 338 338 344 344 342 329 342 333 323 308 302 299 291 260 237 228 230 227 221 218 216 213 214 204 200 198 217 211 210 213 212 208 211 212 222 219 227
18 11 20 14 9 22 295 215 267 90 299 299 304 315 325 328 334 337 333 328 325 312 304 296 292 279 243 231 233 229 227 223 221 219 215 210 203 201 208 220 210 218 214 210 208 208 212 222 216
34 76 347 359 340 72 328 301 306 10 313 303 302 300 319 333 339 347 342 340 338 327 320 309 300 281 254 239 232 227 226 220 222 222 214 214 210 201 199 220 221 213 212 213 213 215 215 224 218
36 332 331 323 357 339 352 304 306 294 301 293 294 308 342 5 16 7 4 358 353 352 343 333 321 289 263 245 239 230 227 224 225 220 220 214 215 203 198 221 220 216 214 214 217 217 224 218 219
319 304 291 302 342 335 306 292 299 295 282 281 280 288 347 7 22 15 20 19 11 7 1 354 350 326 287 264 240 235 222 220 221 211 215 215 212 210 199 215 220 207 211 218 216 220 210 226 222
226 237 270 294 303 318 301 296 295 295 287 281 290 226 15 334 16 33 28 20 16 13 7 5 359 354 324 263 226 227 221 217 218 215 217 214 216 210 201 199 210 206 212 211 213 213 210 200 185
230 275 301 287 295 312 305 297 301 288 272 296 281 206 316 335 15 21 17 22 17 10 9 6 0 356 353 303 255 237 228 232 222 218 224 219 218 212 207 208 202 198 210 213 210 205 209 213 188
247 267 257 298 317 284 287 286 252 266 265 231 196 211 203 341 355 358 11 14 14 10 360 1 359 355 350 347 291 263 249 241 229 219 218 219 217 212 211 210 211 206 203 205 215 205 206 205 194
282 196 285 287 311 307 355 297 255 266 265 274 207 205 216 214 314 340 359 6 4 5 360 352 349 355 351 344 339 288 261 252 236 236 228 218 212 215 211 211 209 208 209 207 207 209 213 213 203
310 312 295 293 287 278 194 254 108 285 267 283 234 247 231 233 312 331 353 358 357 354 357 353 340 344 345 344 341 332 285 270 264 253 249 232 227 220 212 210 211 209 210 215 208 204 205 213 212
330 299 288 170 239 244 136 255 260 245 258 264 234 235 255 238 270 311 346 347 345 348 348 348 347 341 340 339 328 326 314 284 264 248 249 239 229 223 228 208 209 212 212 219 219 208 211 215 219
313 328 315 276 236 295 161 283 271 281 269 269 278 278 267 252 279 312 330 338 337 338 338 338 341 334 339 337 321 319 313 300 272 256 247 245 225 215 219 229 218 207 215 223 221 209 212 214 225
292 264 263 291 291 298 271 249 238 244 273 280 259 257 268 255 274 294 313 326 323 320 321 334 329 327 325 326 320 314 311 298 292 266 250 237 234 220 201 193 206 224 219 220 213 206 201 202 172
149 218 354 273 264 266 237 254 268 272 258 247 242 301 279 279 272 287 310 314 308 308 320 325 318 315 317 319 315 310 308 303 297 281 252 234 223 219 198 193 189 203 218 219 194 177 184 187 165
249 147 204 208 268 259 263 266 270 281 260 291 298 310 312 323 298 299 305 315 313 315 320 322 318 316 313 313 311 309 306 305 294 286 254 237 226 214 199 196 188 191 207 203 176 169 175 178 173
221 215 208 280 234 264 291 271 219 287 295 296 308 321 326 325 318 315 316 317 320 320 321 318 316 313 309 312 309 308 311 311 300 291 263 242 233 214 202 193 188 184 200 200 171 176 175 160 159
260 263 251 235 234 232 278 276 291 282 287 324 308 311 326 318 316 316 319 321 319 316 318 312 311 309 308 309 309 304 305 311 302 281 270 243 228 218 215 205 184 185 199 197 181 170 172 161 160